| time (UTC) | temp F | wind direction | speed MPH | gust MPH | rain 1hr in | rain 24hr in | rain mn in | humidity % | barometer mb |
| 20260508151803 | 62 | 141 | 1.0 | 9.0 | 0.00 | 0.00 | 0.00 | 64 | 1012.0 |
| 20260508150903 | 62 | 139 | 1.0 | 5.0 | 0.00 | 0.00 | 0.00 | 64 | 1012.0 |
| 20260508150004 | 62 | 141 | 1.0 | 4.0 | 0.00 | 0.00 | 0.00 | 64 | 1012.2 |
| 20260508145403 | 62 | 146 | 1.0 | 8.0 | 0.00 | 0.00 | 0.00 | 63 | 1012.2 |
| 20260508144524 | 63 | 149 | 2.0 | 8.0 | 0.00 | 0.00 | 0.00 | 62 | 1012.5 |
| 20260508143624 | 63 | 165 | 1.0 | 8.0 | 0.00 | 0.00 | 0.00 | 61 | 1012.7 |
| 20260508142703 | 63 | 357 | 1.0 | 8.0 | 0.00 | 0.00 | 0.00 | 62 | 1012.9 |
| 20260508141803 | 63 | 302 | 1.0 | 8.0 | 0.00 | 0.00 | 0.00 | 62 | 1013.0 |
| 20260508140903 | 63 | 143 | 0.0 | 6.0 | 0.00 | 0.00 | 0.00 | 65 | 1012.9 |
| 20260508140003 | 62 | 161 | 0.0 | 3.0 | 0.00 | 0.00 | 0.00 | 66 | 1012.6 |
| 20260508135403 | 61 | 169 | 0.0 | 4.0 | 0.00 | 0.00 | 0.00 | 66 | 1012.7 |
| 20260508134524 | 61 | 155 | 0.0 | 5.0 | 0.00 | 0.00 | 0.00 | 67 | 1012.6 |
| 20260508133603 | 60 | 149 | 0.0 | 4.0 | 0.00 | 0.00 | 0.00 | 68 | 1012.5 |
| 20260508132703 | 59 | 184 | 0.0 | 2.0 | 0.00 | 0.00 | 0.00 | 69 | 1012.5 |
| 20260508131803 | 58 | 136 | 0.0 | 4.0 | 0.00 | 0.00 | 0.00 | 71 | 1012.5 |
| 20260508130903 | 57 | 144 | 0.0 | 2.0 | 0.00 | 0.00 | 0.00 | 73 | 1012.4 |
| 20260508130003 | 56 | 133 | 0.0 | 3.0 | 0.00 | 0.00 | 0.00 | 75 | 1012.5 |
| 20260508125403 | 55 | 133 | 0.0 | 3.0 | 0.00 | 0.00 | 0.00 | 76 | 1012.5 |
| 20260508124503 | 54 | 127 | 0.0 | 1.0 | 0.00 | 0.00 | 0.00 | 75 | 1012.5 |
| 20260508123603 | 54 | 126 | 0.0 | 1.0 | 0.00 | 0.00 | 0.00 | 75 | 1012.6 |
| 20260508122703 | 54 | 125 | 0.0 | 1.0 | 0.00 | 0.00 | 0.00 | 75 | 1012.5 |
| 20260508121803 | 54 | 136 | 0.0 | 1.0 | 0.00 | 0.00 | 0.00 | 75 | 1012.5 |
| 20260508120903 | 53 | 117 | 0.0 | 2.0 | 0.00 | 0.00 | 0.00 | 75 | 1012.5 |
| 20260508120024 | 53 | 142 | 0.0 | 5.0 | 0.00 | 0.00 | 0.00 | 76 | 1012.5 |
| 20260508115403 | 52 | 129 | 0.0 | 3.0 | 0.00 | 0.00 | 0.00 | 76 | 1012.4 |
| 20260508114503 | 52 | 125 | 0.0 | 3.0 | 0.00 | 0.00 | 0.00 | 76 | 1012.4 |
| 20260508113603 | 51 | 145 | 0.0 | 1.0 | 0.00 | 0.00 | 0.00 | 76 | 1012.3 |
| 20260508112724 | 51 | 138 | 0.0 | 1.0 | 0.00 | 0.00 | 0.00 | 76 | 1012.3 |
| 20260508111824 | 51 | 140 | 0.0 | 1.0 | 0.00 | 0.00 | 0.00 | 76 | 1012.3 |
| 20260508110903 | 51 | 0 | 0.0 | 0.0 | 0.00 | 0.00 | 0.00 | 76 | 1012.2 |
| 20260508110003 | 51 | 0 | 0.0 | 0.0 | 0.00 | 0.00 | 0.00 | 75 | 1012.2 |
| 20260508105403 | 51 | 123 | 0.0 | 1.0 | 0.00 | 0.00 | 0.00 | 75 | 1012.2 |
| 20260508104503 | 51 | 131 | 0.0 | 1.0 | 0.00 | 0.00 | 0.00 | 75 | 1012.2 |
| 20260508103603 | 51 | 128 | 0.0 | 1.0 | 0.00 | 0.00 | 0.00 | 75 | 1012.2 |
| 20260508102703 | 51 | 0 | 0.0 | 1.0 | 0.00 | 0.00 | 0.00 | 75 | 1012.2 |
| 20260508101803 | 51 | 131 | 0.0 | 1.0 | 0.00 | 0.00 | 0.00 | 75 | 1012.2 |
| 20260508100903 | 51 | 131 | 0.0 | 1.0 | 0.00 | 0.00 | 0.00 | 75 | 1012.3 |
| 20260508100003 | 51 | 0 | 0.0 | 0.0 | 0.00 | 0.00 | 0.00 | 75 | 1012.3 |
| 20260508095403 | 51 | 139 | 0.0 | 1.0 | 0.00 | 0.00 | 0.00 | 75 | 1012.3 |
| 20260508094503 | 51 | 141 | 0.0 | 1.0 | 0.00 | 0.00 | 0.00 | 76 | 1012.3 |
| 20260508093603 | 51 | 0 | 0.0 | 0.0 | 0.00 | 0.00 | 0.00 | 75 | 1012.4 |
| 20260508092724 | 51 | 144 | 0.0 | 1.0 | 0.00 | 0.00 | 0.00 | 75 | 1012.5 |
| 20260508091803 | 51 | 0 | 0.0 | 0.0 | 0.00 | 0.00 | 0.00 | 75 | 1012.6 |
| 20260508090924 | 51 | 122 | 0.0 | 1.0 | 0.00 | 0.00 | 0.00 | 75 | 1012.5 |
| 20260508090003 | 51 | 123 | 0.0 | 1.0 | 0.00 | 0.00 | 0.00 | 75 | 1012.5 |
| 20260508085403 | 51 | 123 | 0.0 | 1.0 | 0.00 | 0.00 | 0.00 | 75 | 1012.4 |
| 20260508084503 | 51 | 0 | 0.0 | 0.0 | 0.00 | 0.00 | 0.00 | 74 | 1012.4 |
| 20260508083603 | 51 | 0 | 0.0 | 0.0 | 0.00 | 0.00 | 0.00 | 74 | 1012.4 |
| 20260508082703 | 51 | 0 | 0.0 | 0.0 | 0.00 | 0.00 | 0.00 | 74 | 1012.5 |
| 20260508081824 | 52 | 138 | 0.0 | 1.0 | 0.00 | 0.00 | 0.00 | 73 | 1012.5 |
| 20260508080903 | 52 | 0 | 0.0 | 1.0 | 0.00 | 0.00 | 0.00 | 73 | 1012.5 |
| 20260508080024 | 52 | 0 | 0.0 | 0.0 | 0.00 | 0.00 | 0.00 | 73 | 1012.5 |
| 20260508075404 | 52 | 0 | 0.0 | 0.0 | 0.00 | 0.00 | 0.00 | 73 | 1012.6 |
| 20260508074504 | 52 | 120 | 0.0 | 1.0 | 0.00 | 0.00 | 0.00 | 72 | 1012.6 |
| 20260508073603 | 52 | 119 | 0.0 | 1.0 | 0.00 | 0.00 | 0.00 | 72 | 1012.7 |
| 20260508072703 | 52 | 129 | 0.0 | 1.0 | 0.00 | 0.00 | 0.00 | 71 | 1012.7 |
| 20260508071803 | 53 | 133 | 0.0 | 1.0 | 0.00 | 0.00 | 0.00 | 71 | 1012.8 |
| 20260508070903 | 53 | 118 | 0.0 | 1.0 | 0.00 | 0.00 | 0.00 | 71 | 1012.8 |
| 20260508070024 | 53 | 136 | 0.0 | 1.0 | 0.00 | 0.00 | 0.00 | 70 | 1012.9 |
| 20260508065403 | 53 | 127 | 0.0 | 1.0 | 0.00 | 0.00 | 0.00 | 70 | 1013.0 |
| 20260508064503 | 53 | 136 | 0.0 | 1.0 | 0.00 | 0.00 | 0.00 | 69 | 1013.0 |
| 20260508063603 | 54 | 133 | 0.0 | 1.0 | 0.00 | 0.00 | 0.00 | 69 | 1013.2 |
| 20260508062724 | 54 | 135 | 0.0 | 1.0 | 0.00 | 0.00 | 0.00 | 68 | 1013.3 |
| 20260508061803 | 54 | 135 | 0.0 | 1.0 | 0.00 | 0.00 | 0.00 | 68 | 1013.5 |
| 20260508060903 | 54 | 132 | 0.0 | 1.0 | 0.00 | 0.00 | 0.00 | 67 | 1013.5 |
| 20260508060003 | 54 | 132 | 0.0 | 1.0 | 0.00 | 0.00 | 0.00 | 67 | 1013.5 |
| 20260508055403 | 54 | 131 | 0.0 | 1.0 | 0.00 | 0.00 | 0.00 | 67 | 1013.6 |
| 20260508054503 | 54 | 131 | 0.0 | 1.0 | 0.00 | 0.00 | 0.00 | 67 | 1013.5 |
| 20260508053603 | 54 | 0 | 0.0 | 0.0 | 0.00 | 0.00 | 0.00 | 67 | 1013.6 |
| 20260508052703 | 54 | 132 | 0.0 | 1.0 | 0.00 | 0.00 | 0.00 | 67 | 1013.6 |
| 20260508051803 | 54 | 132 | 0.0 | 1.0 | 0.00 | 0.00 | 0.00 | 67 | 1013.5 |
| 20260508050903 | 54 | 132 | 0.0 | 1.0 | 0.00 | 0.00 | 0.00 | 66 | 1013.5 |
| 20260508050004 | 55 | 133 | 0.0 | 1.0 | 0.00 | 0.00 | 0.00 | 66 | 1013.5 |
| 20260508045403 | 55 | 133 | 0.0 | 1.0 | 0.00 | 0.00 | 0.00 | 66 | 1013.6 |
| 20260508044503 | 55 | 0 | 0.0 | 0.0 | 0.00 | 0.00 | 0.00 | 66 | 1013.6 |
| 20260508043603 | 55 | 132 | 0.0 | 1.0 | 0.00 | 0.00 | 0.00 | 66 | 1013.6 |
| 20260508042724 | 56 | 132 | 0.0 | 1.0 | 0.00 | 0.00 | 0.00 | 64 | 1013.6 |
| 20260508041803 | 56 | 125 | 0.0 | 1.0 | 0.00 | 0.00 | 0.00 | 63 | 1013.6 |
| 20260508040903 | 56 | 127 | 0.0 | 1.0 | 0.00 | 0.00 | 0.00 | 62 | 1013.6 |
| 20260508040003 | 57 | 139 | 0.0 | 1.0 | 0.00 | 0.00 | 0.00 | 61 | 1013.6 |
| 20260508035403 | 57 | 139 | 0.0 | 1.0 | 0.00 | 0.00 | 0.00 | 61 | 1013.6 |
| 20260508034524 | 57 | 138 | 0.0 | 1.0 | 0.00 | 0.00 | 0.00 | 60 | 1013.5 |
| 20260508033624 | 57 | 131 | 0.0 | 1.0 | 0.00 | 0.00 | 0.00 | 59 | 1013.6 |
| 20260508032703 | 57 | 134 | 0.0 | 1.0 | 0.00 | 0.00 | 0.00 | 60 | 1013.6 |
| 20260508031803 | 58 | 133 | 0.0 | 1.0 | 0.00 | 0.00 | 0.00 | 59 | 1013.6 |
| 20260508030905 | 58 | 134 | 0.0 | 1.0 | 0.00 | 0.00 | 0.00 | 59 | 1013.6 |
| 20260508030004 | 58 | 133 | 0.0 | 1.0 | 0.00 | 0.00 | 0.00 | 57 | 1013.7 |
| 20260508025403 | 58 | 0 | 0.0 | 0.0 | 0.00 | 0.00 | 0.00 | 57 | 1013.7 |
| 20260508024503 | 58 | 0 | 0.0 | 0.0 | 0.00 | 0.00 | 0.00 | 56 | 1013.7 |
| 20260508023603 | 59 | 0 | 0.0 | 0.0 | 0.00 | 0.00 | 0.00 | 56 | 1013.7 |
| 20260508022703 | 59 | 0 | 0.0 | 0.0 | 0.00 | 0.00 | 0.00 | 54 | 1013.7 |
| 20260508021803 | 59 | 0 | 0.0 | 0.0 | 0.00 | 0.00 | 0.00 | 54 | 1013.6 |
| 20260508020903 | 60 | 0 | 0.0 | 0.0 | 0.00 | 0.00 | 0.00 | 54 | 1013.6 |
| 20260508020003 | 60 | 134 | 0.0 | 1.0 | 0.00 | 0.00 | 0.00 | 53 | 1013.5 |
| 20260508015403 | 60 | 133 | 0.0 | 1.0 | 0.00 | 0.00 | 0.00 | 53 | 1013.4 |
| 20260508014503 | 60 | 133 | 0.0 | 1.0 | 0.00 | 0.00 | 0.00 | 54 | 1013.3 |
| 20260508013603 | 61 | 0 | 0.0 | 0.0 | 0.00 | 0.00 | 0.00 | 54 | 1013.2 |
| 20260508012703 | 62 | 0 | 0.0 | 0.0 | 0.00 | 0.00 | 0.00 | 52 | 1013.1 |
| 20260508011803 | 62 | 0 | 0.0 | 0.0 | 0.00 | 0.00 | 0.00 | 51 | 1013.1 |
| 20260508010903 | 63 | 0 | 0.0 | 0.0 | 0.00 | 0.00 | 0.00 | 48 | 1013.0 |
| 20260508010003 | 64 | 134 | 0.0 | 1.0 | 0.00 | 0.00 | 0.00 | 47 | 1012.9 |
| 20260508005403 | 64 | 136 | 0.0 | 1.0 | 0.00 | 0.00 | 0.00 | 46 | 1012.8 |
| 20260508004503 | 64 | 136 | 0.0 | 1.0 | 0.00 | 0.00 | 0.00 | 44 | 1012.7 |
| 20260508003624 | 65 | 201 | 0.0 | 3.0 | 0.00 | 0.00 | 0.00 | 43 | 1012.7 |
| 20260508002724 | 65 | 176 | 1.0 | 3.0 | 0.00 | 0.00 | 0.00 | 42 | 1012.7 |
| 20260508001803 | 66 | 191 | 0.0 | 3.0 | 0.00 | 0.00 | 0.00 | 42 | 1012.7 |
| 20260508000903 | 66 | 306 | 1.0 | 4.0 | 0.00 | 0.00 | 0.00 | 41 | 1012.6 |
| 20260508000024 | 66 | 318 | 1.0 | 4.0 | 0.00 | 0.00 | 0.00 | 40 | 1012.6 |
| 20260507235424 | 66 | 164 | 1.0 | 4.0 | 0.00 | 0.00 | 0.00 | 40 | 1012.6 |
| 20260507234503 | 66 | 190 | 1.0 | 5.0 | 0.00 | 0.00 | 0.00 | 39 | 1012.7 |
| 20260507233603 | 67 | 154 | 2.0 | 7.0 | 0.00 | 0.00 | 0.00 | 39 | 1012.6 |
| 20260507232703 | 67 | 293 | 1.0 | 7.0 | 0.00 | 0.00 | 0.00 | 40 | 1012.7 |
| 20260507231824 | 67 | 164 | 1.0 | 5.0 | 0.00 | 0.00 | 0.00 | 40 | 1012.7 |
| 20260507230903 | 67 | 347 | 2.0 | 12.0 | 0.00 | 0.00 | 0.00 | 40 | 1012.8 |
| 20260507230003 | 68 | 281 | 2.0 | 7.0 | 0.00 | 0.00 | 0.00 | 39 | 1012.8 |
| 20260507225424 | 68 | 327 | 2.0 | 10.0 | 0.00 | 0.00 | 0.00 | 40 | 1012.9 |
| 20260507224503 | 68 | 144 | 2.0 | 8.0 | 0.00 | 0.00 | 0.00 | 42 | 1013.0 |
| 20260507223603 | 67 | 156 | 2.0 | 8.0 | 0.00 | 0.00 | 0.00 | 39 | 1013.0 |
| 20260507222703 | 67 | 205 | 2.0 | 7.0 | 0.00 | 0.00 | 0.00 | 41 | 1013.1 |
| 20260507221803 | 67 | 263 | 2.0 | 7.0 | 0.00 | 0.00 | 0.00 | 38 | 1013.2 |
| 20260507220903 | 68 | 299 | 2.0 | 6.0 | 0.00 | 0.00 | 0.00 | 40 | 1013.2 |
| 20260507220004 | 67 | 328 | 2.0 | 9.0 | 0.00 | 0.00 | 0.00 | 40 | 1013.2 |
| 20260507215403 | 67 | 318 | 2.0 | 9.0 | 0.00 | 0.00 | 0.00 | 38 | 1013.2 |
| 20260507214503 | 68 | 345 | 3.0 | 15.0 | 0.00 | 0.00 | 0.00 | 40 | 1013.2 |
| 20260507213603 | 67 | 153 | 2.0 | 6.0 | 0.00 | 0.00 | 0.00 | 41 | 1013.3 |
| 20260507212725 | 67 | 170 | 1.0 | 9.0 | 0.00 | 0.00 | 0.00 | 40 | 1013.3 |
| 20260507211803 | 68 | 142 | 1.0 | 5.0 | 0.00 | 0.00 | 0.00 | 42 | 1013.4 |
| 20260507210903 | 67 | 154 | 2.0 | 6.0 | 0.00 | 0.00 | 0.00 | 41 | 1013.5 |
| 20260507204503 | 67 | 332 | 3.0 | 11.0 | 0.00 | 0.00 | 0.00 | 39 | 1013.9 |
| 20260507203603 | 67 | 316 | 3.0 | 9.0 | 0.00 | 0.00 | 0.00 | 38 | 1014.2 |
| 20260507202724 | 67 | 311 | 2.0 | 10.0 | 0.00 | 0.00 | 0.00 | 38 | 1014.3 |
| 20260507201824 | 66 | 325 | 2.0 | 9.0 | 0.00 | 0.00 | 0.00 | 37 | 1014.5 |
| 20260507200903 | 68 | 313 | 1.0 | 8.0 | 0.00 | 0.00 | 0.00 | 37 | 1014.6 |
| 20260507200003 | 67 | 326 | 2.0 | 6.0 | 0.00 | 0.00 | 0.00 | 38 | 1014.6 |
| 20260507195403 | 68 | 313 | 2.0 | 10.0 | 0.00 | 0.00 | 0.00 | 37 | 1014.5 |
| 20260507194503 | 67 | 326 | 2.0 | 8.0 | 0.00 | 0.00 | 0.00 | 37 | 1014.6 |
| 20260507193603 | 68 | 209 | 1.0 | 8.0 | 0.00 | 0.00 | 0.00 | 40 | 1014.7 |
| 20260507192703 | 67 | 195 | 1.0 | 7.0 | 0.00 | 0.00 | 0.00 | 40 | 1014.8 |
| 20260507191803 | 67 | 10 | 2.0 | 8.0 | 0.00 | 0.00 | 0.00 | 41 | 1014.9 |
| 20260507190903 | 66 | 341 | 2.0 | 14.0 | 0.00 | 0.00 | 0.00 | 39 | 1015.0 |
| 20260507190004 | 66 | 352 | 3.0 | 13.0 | 0.00 | 0.00 | 0.00 | 40 | 1015.2 |
| 20260507185424 | 66 | 337 | 3.0 | 13.0 | 0.00 | 0.00 | 0.00 | 38 | 1015.2 |
| 20260507184503 | 66 | 91 | 2.0 | 16.0 | 0.00 | 0.00 | 0.00 | 41 | 1015.3 |
| 20260507183603 | 66 | 308 | 1.0 | 5.0 | 0.00 | 0.00 | 0.00 | 41 | 1015.3 |
| 20260507182703 | 66 | 332 | 2.0 | 9.0 | 0.00 | 0.00 | 0.00 | 40 | 1015.4 |
| 20260507181803 | 66 | 243 | 1.0 | 8.0 | 0.00 | 0.00 | 0.00 | 42 | 1015.5 |
| 20260507180903 | 65 | 308 | 2.0 | 9.0 | 0.00 | 0.00 | 0.00 | 39 | 1015.7 |
| 20260507180003 | 65 | 315 | 1.0 | 6.0 | 0.00 | 0.00 | 0.00 | 41 | 1015.8 |
| 20260507175403 | 64 | 332 | 1.0 | 9.0 | 0.00 | 0.00 | 0.00 | 43 | 1015.8 |
| 20260507174503 | 64 | 146 | 1.0 | 9.0 | 0.00 | 0.00 | 0.00 | 42 | 1015.8 |
| 20260507173603 | 63 | 332 | 1.0 | 8.0 | 0.00 | 0.00 | 0.00 | 43 | 1016.1 |
| 20260507172703 | 63 | 334 | 2.0 | 11.0 | 0.00 | 0.00 | 0.00 | 42 | 1016.1 |
| 20260507171803 | 63 | 336 | 2.0 | 10.0 | 0.00 | 0.00 | 0.00 | 42 | 1016.2 |
| 20260507170903 | 63 | 340 | 1.0 | 6.0 | 0.00 | 0.00 | 0.00 | 45 | 1016.4 |
| 20260507170003 | 63 | 111 | 2.0 | 8.0 | 0.00 | 0.00 | 0.00 | 46 | 1016.7 |
| 20260507165403 | 62 | 16 | 1.0 | 6.0 | 0.00 | 0.00 | 0.00 | 44 | 1016.6 |
| 20260507164524 | 62 | 152 | 1.0 | 9.0 | 0.00 | 0.00 | 0.00 | 42 | 1016.9 |
| 20260507163603 | 62 | 91 | 2.0 | 7.0 | 0.00 | 0.00 | 0.00 | 41 | 1016.9 |
| 20260507162703 | 62 | 166 | 1.0 | 5.0 | 0.00 | 0.00 | 0.00 | 47 | 1016.9 |
| 20260507160903 | 61 | 153 | 1.0 | 6.0 | 0.00 | 0.00 | 0.00 | 49 | 1017.1 |
| 20260507160003 | 60 | 159 | 1.0 | 6.0 | 0.00 | 0.00 | 0.00 | 47 | 1017.2 |
| 20260507155403 | 60 | 143 | 1.0 | 8.0 | 0.00 | 0.00 | 0.00 | 46 | 1017.3 |
| 20260507154503 | 60 | 306 | 1.0 | 8.0 | 0.00 | 0.00 | 0.00 | 48 | 1017.4 |
| 20260507153624 | 59 | 142 | 1.0 | 4.0 | 0.00 | 0.00 | 0.00 | 53 | 1017.4 |
| 20260507152703 | 59 | 135 | 1.0 | 6.0 | 0.00 | 0.00 | 0.00 | 50 | 1017.4 |